Tiempo cada hora Muravchiy

Hoy, 27 Octubre, Martes

Tiempo Temperatura Precipitaciones Viento Presión Humedad
00:00 +7°C° 0 mm 4 mps 753 mmHg 81%
01:00 +7°C° 0 mm 3 mps 753 mmHg 83%
02:00 +7°C° 0 mm 3 mps 753 mmHg 85%
03:00 +7°C° 0 mm 3 mps 753 mmHg 84%
04:00 +6°C° 0 mm 4 mps 752 mmHg 83%
05:00 +6°C° 0 mm 5 mps 752 mmHg 83%
06:00 +6°C° 0 mm 4 mps 752 mmHg 82%
07:00 +6°C° 0 mm 4 mps 752 mmHg 81%
08:00 +6°C° 0 mm 4 mps 753 mmHg 80%
09:00 +8°C° 0 mm 4 mps 753 mmHg 76%
10:00 +10°C° 0 mm 4 mps 753 mmHg 71%
11:00 +11°C° 0 mm 4 mps 753 mmHg 67%
12:00 +12°C° 0 mm 4 mps 752 mmHg 66%
13:00 +13°C° 0 mm 4 mps 752 mmHg 65%
14:00 +13°C° 0 mm 4 mps 752 mmHg 64%
15:00 +12°C° 0 mm 4 mps 752 mmHg 68%
16:00 +11°C° 0 mm 4 mps 752 mmHg 73%
17:00 +10°C° 0 mm 3 mps 752 mmHg 77%
18:00 +10°C° 0 mm 3 mps 752 mmHg 77%
19:00 +10°C° 0 mm 4 mps 752 mmHg 77%
20:00 +10°C° 0 mm 4 mps 752 mmHg 78%
21:00 +8°C° 0 mm 4 mps 752 mmHg 79%
22:00 +9°C° 0 mm 3 mps 752 mmHg 80%
23:00 +9°C° 0 mm 3 mps 752 mmHg 81%

Mañana, 28 Octubre, Miércoles

Tiempo Temperatura Precipitaciones Viento Presión Humedad
00:00 +8°C° 0 mm 3 mps 752 mmHg 83%
01:00 +8°C° 0 mm 3 mps 753 mmHg 84%
02:00 +8°C° 0 mm 3 mps 753 mmHg 85%
03:00 +8°C° 0 mm 3 mps 753 mmHg 87%
04:00 +8°C° 0 mm 3 mps 752 mmHg 88%
05:00 +7°C° 0 mm 3 mps 752 mmHg 89%
06:00 +8°C° 0 mm 3 mps 753 mmHg 88%
07:00 +8°C° 0 mm 3 mps 753 mmHg 86%
08:00 +8°C° 0 mm 4 mps 753 mmHg 84%
09:00 +10°C° 0 mm 3 mps 753 mmHg 80%
10:00 +11°C° 0 mm 3 mps 753 mmHg 75%
11:00 +12°C° 0 mm 3 mps 753 mmHg 71%
12:00 +13°C° 0 mm 3 mps 753 mmHg 69%
13:00 +14°C° 0 mm 3 mps 753 mmHg 68%
14:00 +16°C° 0 mm 3 mps 753 mmHg 66%
15:00 +13°C° 0 mm 3 mps 753 mmHg 70%
16:00 +12°C° 0 mm 3 mps 753 mmHg 73%
17:00 +11°C° 0 mm 3 mps 753 mmHg 77%
18:00 +10°C° 0 mm 3 mps 753 mmHg 76%
19:00 +10°C° 0 mm 3 mps 753 mmHg 76%
20:00 +9°C° 0 mm 3 mps 753 mmHg 75%
21:00 +9°C° 0 mm 3 mps 753 mmHg 76%
22:00 +8°C° 0 mm 3 mps 753 mmHg 77%
23:00 +8°C° 0 mm 3 mps 753 mmHg 78%

Pasado mañana, 29 Octubre, Jueves

Tiempo Temperatura Precipitaciones Viento Presión Humedad
00:00 +8°C° 0 mm 3 mps 753 mmHg 80%
01:00 +7°C° 0 mm 3 mps 753 mmHg 81%
02:00 +7°C° 0 mm 2 mps 753 mmHg 83%
03:00 +7°C° 0 mm 2 mps 753 mmHg 84%
04:00 +7°C° 0 mm 2 mps 752 mmHg 86%
05:00 +6°C° 0 mm 2 mps 752 mmHg 88%
06:00 +7°C° 0 mm 2 mps 752 mmHg 88%
07:00 +7°C° 0 mm 3 mps 752 mmHg 88%
08:00 +7°C° 0 mm 3 mps 752 mmHg 87%
09:00 +8°C° 0 mm 3 mps 752 mmHg 83%
10:00 +9°C° 0 mm 3 mps 752 mmHg 78%
11:00 +11°C° 0 mm 3 mps 752 mmHg 73%
12:00 +11°C° 0 mm 3 mps 751 mmHg 72%
13:00 +12°C° 0 mm 2 mps 751 mmHg 71%
14:00 +13°C° 0 mm 2 mps 751 mmHg 70%
15:00 +12°C° 0 mm 2 mps 750 mmHg 74%
16:00 +10°C° 0 mm 2 mps 750 mmHg 79%
17:00 +9°C° 0 mm 2 mps 750 mmHg 84%
18:00 +9°C° 0 mm 2 mps 750 mmHg 86%
19:00 +8°C° 0 mm 2 mps 750 mmHg 89%
20:00 +8°C° 0 mm 2 mps 750 mmHg 91%
21:00 +7°C° 0 mm 2 mps 750 mmHg 92%
22:00 +8°C° 0 mm 1 mps 749 mmHg 93%
23:00 +8°C° 0 mm 1 mps 749 mmHg 93%

30 Octubre, Viernes

Tiempo Temperatura Precipitaciones Viento Presión Humedad
00:00 +8°C° 0 mm 1 mps 749 mmHg 93%
01:00 +8°C° 0 mm 1 mps 749 mmHg 93%
02:00 +8°C° 0 mm 1 mps 749 mmHg 93%
03:00 +8°C° 0 mm 1 mps 749 mmHg 92%
04:00 +8°C° 0 mm 1 mps 749 mmHg 91%
05:00 +8°C° 0 mm 1 mps 749 mmHg 91%
06:00 +9°C° 0 mm 1 mps 749 mmHg 90%
07:00 +9°C° 0 mm 1 mps 749 mmHg 89%
08:00 +9°C° 0 mm 1 mps 749 mmHg 88%
09:00 +10°C° 0 mm 1 mps 749 mmHg 87%
10:00 +10°C° 0 mm 1 mps 749 mmHg 85%
11:00 +11°C° 0 mm 1 mps 749 mmHg 83%
12:00 +11°C° 0 mm 1 mps 749 mmHg 82%
13:00 +12°C° 0 mm 1 mps 749 mmHg 81%
14:00 +12°C° 0 mm 1 mps 749 mmHg 81%
15:00 +12°C° 0 mm 1 mps 749 mmHg 83%
16:00 +11°C° 0 mm 1 mps 749 mmHg 85%
17:00 +10°C° 0 mm 2 mps 749 mmHg 86%
18:00 +10°C° 0.1 mm 2 mps 749 mmHg 88%
19:00 +9°C° 0.1 mm 2 mps 749 mmHg 89%
20:00 +9°C° 0.1 mm 3 mps 750 mmHg 91%
21:00 +9°C° 0.3 mm 3 mps 750 mmHg 92%
22:00 +9°C° 0.3 mm 3 mps 750 mmHg 92%
23:00 +9°C° 0.3 mm 3 mps 750 mmHg 93%

31 Octubre, Sábado

Tiempo Temperatura Precipitaciones Viento Presión Humedad
00:00 +8°C° 0.4 mm 4 mps 750 mmHg 93%
01:00 +8°C° 0.4 mm 4 mps 750 mmHg 93%
02:00 +8°C° 0.4 mm 4 mps 751 mmHg 93%
03:00 +8°C° 0.2 mm 4 mps 751 mmHg 93%
04:00 +8°C° 0.2 mm 4 mps 751 mmHg 93%
05:00 +8°C° 0.2 mm 4 mps 751 mmHg 93%
06:00 +8°C° 0.2 mm 4 mps 751 mmHg 93%
07:00 +8°C° 0.2 mm 4 mps 752 mmHg 93%
08:00 +8°C° 0.2 mm 4 mps 752 mmHg 93%
09:00 +8°C° 0.1 mm 4 mps 752 mmHg 91%
10:00 +8°C° 0.1 mm 4 mps 753 mmHg 89%
11:00 +8°C° 0.1 mm 4 mps 753 mmHg 87%
12:00 +8°C° 0 mm 4 mps 753 mmHg 85%
13:00 +8°C° 0 mm 4 mps 753 mmHg 83%
14:00 +8°C° 0 mm 4 mps 753 mmHg 81%
15:00 +8°C° 0 mm 4 mps 753 mmHg 83%
16:00 +8°C° 0 mm 4 mps 754 mmHg 84%
17:00 +7°C° 0 mm 4 mps 754 mmHg 86%
18:00 +7°C° 0 mm 4 mps 754 mmHg 86%
19:00 +7°C° 0 mm 5 mps 754 mmHg 86%
20:00 +7°C° 0 mm 5 mps 755 mmHg 86%
21:00 +7°C° 0.1 mm 5 mps 755 mmHg 87%
22:00 +7°C° 0.1 mm 5 mps 755 mmHg 87%
23:00 +7°C° 0.1 mm 5 mps 755 mmHg 88%

1 Noviembre, Domingo

Tiempo Temperatura Precipitaciones Viento Presión Humedad
00:00 +7°C° 0.1 mm 5 mps 755 mmHg 88%
01:00 +7°C° 0.1 mm 5 mps 755 mmHg 88%
02:00 +6°C° 0.1 mm 5 mps 755 mmHg 88%
03:00 +6°C° 0.1 mm 5 mps 755 mmHg 89%
04:00 +6°C° 0.1 mm 5 mps 755 mmHg 89%
05:00 +6°C° 0.1 mm 5 mps 755 mmHg 89%
06:00 +6°C° 0.1 mm 5 mps 755 mmHg 89%
07:00 +6°C° 0.1 mm 5 mps 755 mmHg 89%
08:00 +6°C° 0.1 mm 5 mps 755 mmHg 89%
09:00 +7°C° 0 mm 5 mps 755 mmHg 88%
10:00 +7°C° 0 mm 5 mps 755 mmHg 87%
11:00 +8°C° 0 mm 5 mps 755 mmHg 86%
12:00 +8°C° 0 mm 5 mps 755 mmHg 85%
13:00 +8°C° 0 mm 5 mps 755 mmHg 85%
14:00 +8°C° 0 mm 5 mps 755 mmHg 84%
15:00 +8°C° 0 mm 5 mps 755 mmHg 86%
16:00 +8°C° 0 mm 5 mps 755 mmHg 88%
17:00 +8°C° 0 mm 5 mps 755 mmHg 89%
18:00 +8°C° 0.3 mm 5 mps 754 mmHg 90%
19:00 +8°C° 0.3 mm 5 mps 754 mmHg 91%
20:00 +8°C° 0.3 mm 5 mps 754 mmHg 92%
21:00 +8°C° 0.1 mm 4 mps 754 mmHg 92%
22:00 +8°C° 0.1 mm 4 mps 754 mmHg 93%
23:00 +8°C° 0.1 mm 4 mps 754 mmHg 93%
Mostrar más

Necesitamos Su Consentimiento

Meteoprog y nuestros Proveedores de Servicios pueden almacenar y acceder a sus datos personales como cookies, identificadores de dispositivo u otras tecnologías similares de su dispositivo y procesar dichos datos para personalizar contenido y anuncios, además de ofrecer funciones de redes sociales y analizar el tráfico.

  • Almacenar y/o acceder a información en su dispositivo

    Se puede almacenar o acceder a cookies, identificadores de dispositivo u otra información de su dispositivo para los fines anteriormente indicados.

  • Anuncios y contenido personalizados, medición de anuncios y contenido, percepciones del público, y desarrollo de productos

    Los anuncios y el contenido pueden personalizarse en base a su perfil. Se pueden añadir más datos para personalizar mejor los anuncios y contenidos. Se puede medir el rendimiento de los anuncios y contenidos. Se puede obtener la percepción sobre el público que ha visto los anuncios y contenidos. Dichos datos pueden usarse para desarrollar o mejorar la experiencia del usuario, sistemas y software.

Al hacer clic en ‘Estoy De Acuerdo’ usted permitirá el uso de las cookies, identificadores de dispositivo, balizas web u otras tecnologías similares indicadas. Su configuración puede cambiarse desde el navegador de su dispositivo.

Para ciertos fines, los intereses legítimos pueden ser considerados por encima del consentimiento. Puede leer más sobre ello en nuestra Política de Privacidad y Cookies.